Regional Weather Roundup
Issued by NWS

Home | Current Version | Previous Version | Graphics & Text | Print | Product List | Glossary On
Versions: 1 2 3 4 5 6 7 8 9 10 11 12 13 14 15 16 17 18 19 20 21 22 23 24 25 26 27 28 29 30 31 32 33 34 35 36 37 38 39 40 41 42 43 44 45 46 47 48 49 50
000
ASUS43 KTOP 230608
RWRKS

WEATHER ROUNDUP FOR KANSAS
NATIONAL WEATHER SERVICE GOODLAND KS
100 AM CDT MON APR 23 2018

NOTE:  "FAIR" INDICATES FEW OR NO CLOUDS BELOW 12,000 FEET WITH NO
SIGNIFICANT WEATHER AND/OR OBSTRUCTIONS TO VISIBILITY.

KSZ001>006-013>018-027>032-041>047-230700-
NORTHWEST KANSAS

CITY           SKY/WX    TMP DP  RH WIND       PRES   REMARKS
GOODLAND       CLEAR     40  35  83 S6        30.18S
6HR MIN TEMP:  38; 6HR MAX TEMP:  56;

HAYS           CLOUDY    51  43  74 NW5       30.17S
HILL CITY      CLEAR     39  36  89 W5        30.19R
6HR MIN TEMP:  39; 6HR MAX TEMP:  62;

RUSSELL        CLOUDY    50  45  83 NW5       30.14S
6HR MIN TEMP:  47; 6HR MAX TEMP:  61;

$$

KSZ061>065-074>080-084>089-230700-
SOUTHWEST KANSAS

CITY           SKY/WX    TMP DP  RH WIND       PRES   REMARKS
DODGE CITY     CLOUDY    43  37  79 NW7       30.17S
6HR MIN TEMP:  43; 6HR MAX TEMP:  62;

ELKHART        CLEAR     44  40  85 SE5       30.18S
GARDEN CITY    CLEAR     42  35  76 NE3       30.18R
6HR MIN TEMP:  38; 6HR MAX TEMP:  58;

GREAT BEND     CLOUDY    49  45  86 NW7       30.16S
LIBERAL        CLEAR     39  36  89 N5        30.18S
PRATT          CLOUDY    51  43  75 NW7       30.15R
6HR MIN TEMP:  49; 6HR MAX TEMP:  57;

$$

KSZ066>073-081>083-090>101-230700-
SOUTHEAST KANSAS

CITY           SKY/WX    TMP DP  RH WIND       PRES   REMARKS
CHANUTE        CLOUDY    56  47  71 NE9       30.06S
6HR MIN TEMP:  54; 6HR MAX TEMP:  57;

COFFEYVILLE    CLOUDY    53  49  86 NE14      30.04S
6HR MIN TEMP:  53; 6HR MAX TEMP:  55; 6HR PCP:  0.02;

HUTCHINSON     CLOUDY    56  42  59 N7        30.12S
6HR MIN TEMP:  55; 6HR MAX TEMP:  58;

MEDICINE LODGE   N/A     54  43  66 NW3       30.13R
NEWTON         CLOUDY    51  45  79 N6        30.12S
PARSONS        CLOUDY    54  49  83 NE7       30.06S
6HR MIN TEMP:  53; 6HR MAX TEMP:  55; 6HR PCP:  0.01;

WICHITA INTL   CLOUDY    55  46  71 N7        30.10S
6HR MIN TEMP:  53; 6HR MAX TEMP:  56;

WICHITA JABRA  CLOUDY    53  46  77 NW7       30.10S
6HR MIN TEMP:  52; 6HR MAX TEMP:  55;

WICHITA MCCONL CLOUDY    54  44  71 N7        30.10S
WINFIELD       CLOUDY    51  51 100 N5        30.09F
6HR MIN TEMP:  51; 6HR MAX TEMP:  53; 6HR PCP: TRACE;

$$

KSZ007>012-019>026-033>040-048>060-102>105-230700-
NORTHEAST KANSAS

CITY           SKY/WX    TMP DP  RH WIND       PRES   REMARKS
CONCORDIA      CLEAR     49  40  71 NW6       30.13S
6HR MIN TEMP:  47; 6HR MAX TEMP:  59;

EMPORIA        CLOUDY    53  45  74 N3        30.09R
6HR MIN TEMP:  53; 6HR MAX TEMP:  59;

LAWRENCE       CLOUDY    57  41  55 NE9       30.09F
6HR MIN TEMP:  57; 6HR MAX TEMP:  66;

MANHATTAN      CLEAR     48  42  80 CALM      30.12S
6HR MIN TEMP:  48; 6HR MAX TEMP:  66;

MARYSVILLE     CLEAR     45  37  76 NW6       30.14S
OLATHE IND     CLOUDY    58  35  42 NE10      30.09S
6HR MIN TEMP:  56; 6HR MAX TEMP:  63;

OLATHE EXE     CLOUDY    57  33  40 NE8       30.08S
6HR MIN TEMP:  56; 6HR MAX TEMP:  61;

SALINA         CLEAR     49  41  74 NW3       30.13S
6HR MIN TEMP:  49; 6HR MAX TEMP:  62;

TOPEKA BILLARD CLOUDY    56  44  64 N5        30.10S
6HR MIN TEMP:  56; 6HR MAX TEMP:  67;

TOPEKA FORBES  CLOUDY    54  44  69 N5        30.10R
6HR MIN TEMP:  54; 6HR MAX TEMP:  65;

$$




USA.gov is the U.S. government's official web portal to all federal, state and local government web resources and services.